This is the latest recevied weather packets stored in our database for station/object N4MRV-1. If no packets are shown the sender has not sent any weather packets the latest 10 day(s).
| Time | Temp. | Humidity | Pressure | Rain* | Wind** | Luminosity | Snow |
|---|---|---|---|---|---|---|---|
| 1777527017 | 15° C | 92% | 1008 hPa | 0 mm | - | 0 W/m² | - |
| 1777526117 | 15.56° C | 92% | 1007.9 hPa | 0 mm | - | 0 W/m² | - |
| 1777521617 | 16.67° C | 93% | 1008.6 hPa | 0 mm | - | 0 W/m² | - |
| 1777520715 | 16.67° C | 93% | 1008.2 hPa | 0 mm | - | 0 W/m² | - |
| 1777517116 | 16.67° C | 93% | 1008 hPa | 0 mm | - | 0 W/m² | - |
| 1777516215 | 17.22° C | 93% | 1008.2 hPa | 0 mm | - | 0 W/m² | - |
| 1777512615 | 17.22° C | 92% | 1008.2 hPa | 0 mm | - | 0 W/m² | - |
| 1777510817 | 17.22° C | 92% | 1008.4 hPa | 0 mm | - | 0 W/m² | - |
| 1777509037 | 17.22° C | 91% | 1008 hPa | 0 mm | - | 0 W/m² | - |
| 1777500917 | 18.89° C | 87% | 1007.8 hPa | 0.51 mm | - | 44 W/m² | - |
| 1777498217 | 19.44° C | 82% | 1008.6 hPa | 0 mm | - | 58 W/m² | - |
| 1777492817 | 20° C | 74% | 1009.6 hPa | 0 mm | - | 150 W/m² | - |
| 1777488316 | 19.44° C | 76% | 1011 hPa | 0 mm | - | 227 W/m² | - |
| 1777486516 | 18.89° C | 76% | 1011.8 hPa | 0 mm | - | 210 W/m² | - |
| 1777484756 | 18.33° C | 77% | 1012.2 hPa | 0 mm | - | 150 W/m² | - |
| 1777471216 | 12.78° C | 86% | 1014.9 hPa | 0 mm | - | 59 W/m² | - |
| 1777468516 | 11.67° C | 87% | 1015.4 hPa | 0 mm | - | 71 W/m² | - |
| 1777467616 | 11.67° C | 88% | 1015.5 hPa | 0 mm | - | 54 W/m² | - |
| 1777466716 | 11.11° C | 87% | 1015.7 hPa | 0 mm | - | 49 W/m² | - |
| 1777461336 | 10° C | 87% | 1014.7 hPa | 0 mm | - | 20 W/m² | - |
| 1777457716 | 10° C | 88% | 1014.7 hPa | 0 mm | - | 0 W/m² | - |
| 1777453235 | 10° C | 87% | 1015.4 hPa | 0 mm | - | 0 W/m² | - |
| 1777449637 | 10.56° C | 88% | 1015 hPa | 0 mm | - | 0 W/m² | - |
| 1777446917 | 10.56° C | 87% | 1015.5 hPa | 0 mm | - | 0 W/m² | - |
| 1777442417 | 11.11° C | 88% | 1015.8 hPa | 0 mm | - | 0 W/m² | - |
* Rain latest hour (hover to see other rain measurements)
** Current wind speed in m/s (hover to see current wind gust speed)